Regional Weather Roundup
Issued by NWS

Home | Current Version | Previous Version | Text Only | Print | Product List | Glossary On
Versions: 1 2 3 4 5 6 7 8 9 10 11 12 13 14 15 16 17 18 19 20 21 22 23 24 25 26 27 28 29 30 31 32 33 34 35 36 37 38 39 40 41 42 43 44 45 46 47 48 49 50
000
ASCA42 TJSJ 011611
RWRPR
PUERTO RICO/U.S. VIRGIN ISLANDS HOURLY WEATHER ROUNDUP
NATIONAL WEATHER SERVICE SAN JUAN PR
1200 PM AST SUN FEB 01 2015

PRZ001-004-011700-
PUERTO RICO

CITY           SKY/WX    TMP DP  RH WIND       PRES   REMARKS
SAN JUAN LMM   PTSUNNY   81  70  69 NE15      30.11F
AGUADILLA      MOSUNNY   79  73  83 E22       30.13F
CEIBA          MOSUNNY   81  68  65 NE14G21   30.13F
$$

PRZ006-007-011700-
U.S. VIRGIN ISLANDS

CITY           SKY/WX    TMP DP  RH WIND       PRES   REMARKS
$$

HOURLY WEATHER ROUNDUP FOR THE NEWS MEDIA

CITY           SKY/WX    TMP DP  RH WIND       PRES   REMARKS
MIAMI          MOSUNNY   74  54  49 E17       30.23S
ORLANDO        MOSUNNY   70  52  52 S13       30.26F
NEW YORK       PTSUNNY   32  18  56 W12       30.23S WCI  23
NEWARK         CLOUDY    31  18  58 W14       30.22F WCI  21
CHICAGO        HVY SNOW  29  27  92 NE18      29.90F VSB 1/4 WCI  16
HARTFORD       SUNNY     27  15  61 W13       30.13F WCI  16
BOSTON         MOSUNNY   24  11  57 W15G22    30.14F WCI  11
DALLAS         CLOUDY    57  52  83 NW15G21   29.92R
PHILADELPHIA   CLOUDY    35  19  52 W12       30.26F WCI  27



USA.gov is the U.S. government's official web portal to all federal, state and local government web resources and services.